Weather History for Fort Indiantown Gap, PA

Change the Weather History Date:

Monday, August 5, 2013

  Actual Average Record
Temperature  
Mean Temperature 65 °F -  
Max Temperature 76 °F 82 °F 93 °F (2002)
Min Temperature 55 °F 66 °F 55 °F (2013)
Growing Degree Days 15 (Base 50)    
Moisture  
Dew Point 52 °F    
Average Humidity 65    
Maximum Humidity 98    
Minimum Humidity 34    
Precipitation  
Precipitation 0.00 in - - ()
Sea Level Pressure  
Sea Level Pressure 30.08 in    
Wind  
Wind Speed 3 mph (North)    
Max Wind Speed 8 mph    
Max Gust Speed -    
Visibility 10 miles    
Events Rain    
Averages and records for this station are not official NWS values.
T = Trace of Precipitation, MM = Missing Value Source: NWS Daily Summary

Daily Weather History Graph

Daily Weather History Graph

Search for Another Location

Airport:

Trip Planner

Search our weather history database for the weather conditions in past years. The results will help you decide how hot, cold, wet, or windy it might be!

Date:

Astronomy

Aug. 05, 2013 Rise Set
Actual Time 6:07 AM EDT 8:16 PM EDT
Civil Twilight 5:37 AM EDT 8:46 PM EDT
Nautical Twilight 5:00 AM EDT 9:23 PM EDT
Astronomical Twilight 4:19 AM EDT 10:03 PM EDT
Moon 5:00 AM EDT (8/5) 7:15 PM EDT (8/5)
Length of Visible Light 15h 08m
Length of Day
14h 08m
Waning Crescent, 1% of the Moon is Illuminated
Aug 5
Waning Crescent
Aug 6
New
Aug 14
First Quarter
Aug 20
Full
Aug 28
Last Quarter

Hourly Weather History & Observations

Time (EDT) Temp. Dew Point Humidity Pressure Visibility Wind Dir Wind Speed Gust Speed Precip Events Conditions
12:58 AM 58.6 °F 55.8 °F 90% 30.06 in 10.0 mi NW 2.3 mph - N/A   Clear
1:58 AM 57.2 °F 55.2 °F 93% 30.06 in 10.0 mi Calm Calm - N/A   Clear
2:58 AM 55.9 °F 55.4 °F 98% 30.06 in 10.0 mi North 2.3 mph - N/A   Clear
3:58 AM 57.2 °F 54.9 °F 92% 30.07 in 10.0 mi Calm Calm - N/A   Clear
4:58 AM 56.3 °F 53.4 °F 90% 30.06 in 10.0 mi Variable 3.5 mph - N/A   Clear
5:58 AM 55.9 °F 53.2 °F 91% 30.08 in 10.0 mi WSW 3.5 mph - N/A   Clear
6:58 AM 55.8 °F 52.9 °F 90% 30.10 in 10.0 mi SSE 3.5 mph - N/A   Clear
7:58 AM 63.9 °F 53.8 °F 70% 30.12 in 10.0 mi Variable 2.3 mph - N/A   Clear
8:58 AM 66.7 °F 52.2 °F 59% 30.13 in 10.0 mi NNW 8.1 mph - N/A   Clear
9:58 AM 68.4 °F 50.0 °F 52% 30.12 in 10.0 mi Variable 2.3 mph - N/A   Clear
10:04 AM 68.0 °F 50.0 °F 52% 30.12 in 10.0 mi NE 5.8 mph - N/A Rain Light Rain
10:09 AM 68.0 °F 50.0 °F 52% 30.11 in 10.0 mi East 6.9 mph - N/A   Clear
10:58 AM 70.2 °F 49.5 °F 48% 30.12 in 10.0 mi Variable 2.3 mph - 0.00 in   Clear
11:58 AM 72.5 °F 47.1 °F 40% 30.12 in 10.0 mi Variable 5.8 mph - N/A   Clear
12:58 PM 72.9 °F 48.4 °F 42% 30.09 in 10.0 mi Variable 3.5 mph - N/A   Clear
1:58 PM 74.1 °F 47.3 °F 38% 30.06 in 10.0 mi WSW 8.1 mph - N/A   Clear
2:58 PM 75.6 °F 45.5 °F 34% 30.06 in 10.0 mi Variable 6.9 mph - N/A   Clear
3:58 PM 75.2 °F 45.7 °F 35% 30.05 in 10.0 mi NW 8.1 mph - N/A   Partly Cloudy
4:58 PM 75.2 °F 48.4 °F 39% 30.06 in 10.0 mi NNE 4.6 mph - N/A   Clear
5:58 PM 73.2 °F 50.5 °F 45% 30.06 in 10.0 mi NNE 4.6 mph - N/A   Clear
6:58 PM 71.2 °F 52.9 °F 52% 30.07 in 10.0 mi North 2.3 mph - N/A   Clear
7:58 PM 66.6 °F 56.3 °F 69% 30.06 in 10.0 mi Calm Calm - N/A   Clear
8:58 PM 62.8 °F 55.6 °F 77% 30.07 in 10.0 mi ENE 2.3 mph - N/A   Mostly Cloudy
9:58 PM 61.9 °F 54.0 °F 75% 30.06 in 10.0 mi NE 2.3 mph - N/A   Mostly Cloudy
10:58 PM 59.5 °F 55.0 °F 85% 30.06 in 10.0 mi Calm Calm - N/A   Partly Cloudy
11:58 PM 56.8 °F 54.5 °F 92% 30.06 in 10.0 mi Calm Calm - N/A   Clear